This is the latest recevied weather packets stored in our database for station/object AE5TC. If no packets are shown the sender has not sent any weather packets the latest 10 day(s).
| Time | Temp. | Humidity | Pressure | Rain* | Wind** | Luminosity | Snow |
|---|---|---|---|---|---|---|---|
| 1778115903 | 22.78° C | 99% | 1013.8 hPa | 0 mm | - | 0 W/m² | - |
| 1778115599 | 22.78° C | 99% | 1013.9 hPa | 0 mm | - | 0 W/m² | - |
| 1778115297 | 23.33° C | 99% | 1013.8 hPa | 0 mm | - | 0 W/m² | - |
| 1778114993 | 23.33° C | 99% | 1013.6 hPa | 0 mm | - | 0 W/m² | - |
| 1778114690 | 23.33° C | 98% | 1013.4 hPa | 0 mm | - | 0 W/m² | - |
| 1778114388 | 23.33° C | 98% | 1013.5 hPa | 0 mm | - | 0 W/m² | - |
| 1778114082 | 23.33° C | 98% | 1013.4 hPa | 0 mm | - | 0 W/m² | - |
| 1778113777 | 23.33° C | 97% | 1013.3 hPa | 0 mm | - | 1 W/m² | - |
| 1778113474 | 23.89° C | 97% | 1013.3 hPa | 0 mm | - | 2 W/m² | - |
| 1778113171 | 23.89° C | 97% | 1013.3 hPa | 0 mm | - | 3 W/m² | - |
| 1778112868 | 23.89° C | 96% | 1013.1 hPa | 0 mm | - | 5 W/m² | - |
| 1778112566 | 23.89° C | 96% | 1013.2 hPa | 0 mm | - | 8 W/m² | - |
| 1778112261 | 23.89° C | 96% | 1013.2 hPa | 0 mm | - | 13 W/m² | - |
| 1778111957 | 24.44° C | 95% | 1013.1 hPa | 0 mm | - | 18 W/m² | - |
| 1778111655 | 24.44° C | 94% | 1013.1 hPa | 0 mm | - | 22 W/m² | - |
| 1778111350 | 24.44° C | 94% | 1013.2 hPa | 0 mm | - | 26 W/m² | - |
| 1778111048 | 24.44° C | 93% | 1013.2 hPa | 0 mm | - | 31 W/m² | - |
| 1778110745 | 25° C | 93% | 1013.3 hPa | 0 mm | - | 34 W/m² | - |
| 1778110441 | 25° C | 92% | 1013.3 hPa | 0 mm | - | 34 W/m² | - |
| 1778110138 | 25° C | 91% | 1013.4 hPa | 0 mm | - | 36 W/m² | - |
| 1778109834 | 25° C | 90% | 1013.3 hPa | 0 mm | - | 38 W/m² | - |
| 1778109530 | 25° C | 90% | 1013.3 hPa | 0 mm | - | 44 W/m² | - |
| 1778109228 | 25.56° C | 89% | 1013.6 hPa | 0 mm | - | 43 W/m² | - |
| 1778108925 | 25.56° C | 89% | 1013.7 hPa | 0 mm | - | 45 W/m² | - |
| 1778108622 | 25.56° C | 87% | 1013.5 hPa | 0 mm | - | 101 W/m² | - |
* Rain latest hour (hover to see other rain measurements)
** Current wind speed in m/s (hover to see current wind gust speed)